When you browse on this site, cookies collect data to enhance your experience and personalize the content and advertising you see.
Visit our Privacy Policy to learn more. By continuing to use the site, you agree to this use of cookies and data.
  • In Hungary
  • List of Countries
  • For 7 days
  • Water Temperature
  • Weather Map
  • News
  • Weather Widgets
  • user-avatar
    Login

    Hourly Weather Amorosi

    Today, 8 December, Sunday

    Time Temperature Precipitation Wind Pressure Humidity
    00:00 +10°C° 0.1 mm 0 mps 737 mmHg 93%
    01:00 +10°C° 0 mm 0 mps 737 mmHg 94%
    02:00 +10°C° 0 mm 0 mps 737 mmHg 94%
    03:00 +10°C° 0 mm 0 mps 737 mmHg 94%
    04:00 +10°C° 0 mm 0 mps 736 mmHg 94%
    05:00 +10°C° 0 mm 0 mps 737 mmHg 94%
    06:00 +9°C° 0 mm 0 mps 737 mmHg 93%
    07:00 +9°C° 0 mm 0 mps 737 mmHg 93%
    08:00 +10°C° 0 mm 0 mps 737 mmHg 89%
    09:00 +11°C° 0 mm 0 mps 738 mmHg 84%
    10:00 +12°C° 0 mm 0 mps 738 mmHg 80%
    11:00 +14°C° 0 mm 1 mps 737 mmHg 77%
    12:00 +15°C° 0 mm 1 mps 737 mmHg 73%
    13:00 +15°C° 0 mm 2 mps 737 mmHg 70%
    14:00 +15°C° 0 mm 2 mps 737 mmHg 73%
    15:00 +14°C° 0 mm 1 mps 736 mmHg 76%
    16:00 +14°C° 0 mm 1 mps 736 mmHg 78%
    17:00 +13°C° 0 mm 1 mps 736 mmHg 81%
    18:00 +12°C° 0 mm 1 mps 736 mmHg 84%
    19:00 +12°C° 0 mm 1 mps 736 mmHg 86%
    20:00 +11°C° 0 mm 1 mps 736 mmHg 87%
    21:00 +11°C° 0 mm 1 mps 736 mmHg 88%
    22:00 +11°C° 0 mm 1 mps 735 mmHg 89%
    23:00 +11°C° 0 mm 1 mps 735 mmHg 89%

    Tomorrow, 9 December, Monday

    Time Temperature Precipitation Wind Pressure Humidity
    00:00 +10°C° 0 mm 1 mps 735 mmHg 90%
    01:00 +10°C° 0 mm 1 mps 734 mmHg 90%
    02:00 +10°C° 0 mm 1 mps 734 mmHg 90%
    03:00 +11°C° 0 mm 1 mps 733 mmHg 90%
    04:00 +11°C° 0 mm 1 mps 733 mmHg 89%
    05:00 +11°C° 0.1 mm 1 mps 733 mmHg 90%
    06:00 +11°C° 0.1 mm 1 mps 733 mmHg 90%
    07:00 +11°C° 0.1 mm 1 mps 732 mmHg 91%
    08:00 +12°C° 0.1 mm 2 mps 732 mmHg 88%
    09:00 +12°C° 0.1 mm 2 mps 732 mmHg 85%
    10:00 +12°C° 0.1 mm 3 mps 732 mmHg 83%
    11:00 +13°C° 0.2 mm 3 mps 731 mmHg 81%
    12:00 +13°C° 0.2 mm 4 mps 731 mmHg 79%
    13:00 +13°C° 0.2 mm 4 mps 730 mmHg 77%
    14:00 +13°C° 0.3 mm 4 mps 729 mmHg 79%
    15:00 +12°C° 0.3 mm 3 mps 729 mmHg 82%
    16:00 +12°C° 0.3 mm 3 mps 728 mmHg 85%
    17:00 +11°C° 0.1 mm 3 mps 728 mmHg 84%
    18:00 +12°C° 0.1 mm 2 mps 728 mmHg 83%
    19:00 +12°C° 0.1 mm 2 mps 728 mmHg 81%
    20:00 +10°C° 0 mm 2 mps 728 mmHg 81%
    21:00 +10°C° 0 mm 2 mps 728 mmHg 82%
    22:00 +10°C° 0 mm 2 mps 728 mmHg 82%
    23:00 +9°C° 0 mm 2 mps 727 mmHg 82%

    Day after tomorrow, 10 December, Tuesday

    Time Temperature Precipitation Wind Pressure Humidity
    00:00 +10°C° 0 mm 1 mps 727 mmHg 83%
    01:00 +10°C° 0 mm 1 mps 727 mmHg 83%
    02:00 +10°C° 0.1 mm 1 mps 727 mmHg 83%
    03:00 +10°C° 0.1 mm 1 mps 727 mmHg 83%
    04:00 +10°C° 0.1 mm 1 mps 726 mmHg 83%
    05:00 +9°C° 0.3 mm 1 mps 726 mmHg 84%
    06:00 +9°C° 0.3 mm 1 mps 727 mmHg 84%
    07:00 +9°C° 0.3 mm 1 mps 727 mmHg 84%
    08:00 +9°C° 0.4 mm 2 mps 727 mmHg 82%
    09:00 +9°C° 0.4 mm 2 mps 728 mmHg 80%
    10:00 +10°C° 0.4 mm 2 mps 728 mmHg 77%
    11:00 +10°C° 0.3 mm 2 mps 728 mmHg 76%
    12:00 +10°C° 0.3 mm 3 mps 728 mmHg 74%
    13:00 +10°C° 0.3 mm 3 mps 728 mmHg 72%
    14:00 +8°C° 0.8 mm 4 mps 728 mmHg 74%
    15:00 +7°C° 0.8 mm 5 mps 729 mmHg 77%
    16:00 +5°C° 0.8 mm 6 mps 729 mmHg 79%
    17:00 +4°C° 0.3 mm 6 mps 729 mmHg 80%
    18:00 +5°C° 0.3 mm 5 mps 730 mmHg 81%
    19:00 +5°C° 0.3 mm 5 mps 730 mmHg 82%
    20:00 +5°C° 0 mm 5 mps 730 mmHg 80%
    21:00 +3°C° 0 mm 5 mps 731 mmHg 78%
    22:00 +3°C° 0 mm 5 mps 731 mmHg 77%
    23:00 +3°C° 0 mm 5 mps 731 mmHg 77%

    11 December, Wednesday

    Time Temperature Precipitation Wind Pressure Humidity
    00:00 +4°C° 0 mm 4 mps 731 mmHg 78%
    01:00 +3°C° 0 mm 4 mps 732 mmHg 78%
    02:00 +3°C° 0 mm 4 mps 731 mmHg 78%
    03:00 +3°C° 0 mm 3 mps 731 mmHg 78%
    04:00 +3°C° 0 mm 3 mps 731 mmHg 78%
    05:00 +3°C° 0 mm 3 mps 731 mmHg 78%
    06:00 +3°C° 0 mm 3 mps 731 mmHg 79%
    07:00 +3°C° 0 mm 3 mps 731 mmHg 79%
    08:00 +4°C° 0 mm 3 mps 732 mmHg 75%
    09:00 +5°C° 0 mm 3 mps 732 mmHg 72%
    10:00 +7°C° 0 mm 3 mps 732 mmHg 68%
    11:00 +8°C° 0 mm 3 mps 732 mmHg 65%
    12:00 +8°C° 0 mm 3 mps 732 mmHg 63%
    13:00 +9°C° 0 mm 2 mps 732 mmHg 60%
    14:00 +9°C° 0 mm 2 mps 731 mmHg 63%
    15:00 +8°C° 0 mm 2 mps 731 mmHg 65%
    16:00 +7°C° 0 mm 2 mps 731 mmHg 68%
    17:00 +6°C° 0 mm 2 mps 731 mmHg 70%
    18:00 +6°C° 0 mm 2 mps 731 mmHg 72%
    19:00 +6°C° 0 mm 1 mps 731 mmHg 75%
    20:00 +5°C° 0 mm 1 mps 731 mmHg 75%
    21:00 +5°C° 0 mm 1 mps 731 mmHg 75%
    22:00 +5°C° 0 mm 1 mps 732 mmHg 75%
    23:00 +5°C° 0 mm 1 mps 731 mmHg 75%

    12 December, Thursday

    Time Temperature Precipitation Wind Pressure Humidity
    00:00 +5°C° 0 mm 1 mps 731 mmHg 75%
    01:00 +4°C° 0 mm 0 mps 731 mmHg 75%
    02:00 +4°C° 0 mm 0 mps 731 mmHg 75%
    03:00 +4°C° 0 mm 0 mps 731 mmHg 75%
    04:00 +6°C° 0 mm 1 mps 731 mmHg 76%
    05:00 +5°C° 0 mm 0 mps 731 mmHg 77%
    06:00 +5°C° 0 mm 0 mps 731 mmHg 78%
    07:00 +6°C° 0 mm 0 mps 731 mmHg 79%
    08:00 +6°C° 0.1 mm 0 mps 731 mmHg 80%
    09:00 +6°C° 0.1 mm 0 mps 731 mmHg 81%
    10:00 +7°C° 0.1 mm 0 mps 731 mmHg 82%
    11:00 +8°C° 0 mm 1 mps 731 mmHg 81%
    12:00 +9°C° 0 mm 1 mps 731 mmHg 79%
    13:00 +10°C° 0 mm 1 mps 730 mmHg 77%
    14:00 +10°C° 0 mm 1 mps 731 mmHg 78%
    15:00 +9°C° 0 mm 1 mps 731 mmHg 80%
    16:00 +9°C° 0 mm 1 mps 731 mmHg 81%
    17:00 +9°C° 0 mm 1 mps 731 mmHg 81%
    18:00 +8°C° 0 mm 2 mps 731 mmHg 81%
    19:00 +8°C° 0 mm 2 mps 731 mmHg 81%
    20:00 +7°C° 0 mm 2 mps 731 mmHg 80%
    21:00 +7°C° 0 mm 2 mps 732 mmHg 79%
    22:00 +7°C° 0 mm 2 mps 732 mmHg 79%
    23:00 +6°C° 0 mm 2 mps 732 mmHg 79%

    13 December, Friday

    Time Temperature Precipitation Wind Pressure Humidity
    00:00 +7°C° 0 mm 1 mps 732 mmHg 79%
    01:00 +7°C° 0 mm 1 mps 732 mmHg 79%
    02:00 +6°C° 0 mm 1 mps 731 mmHg 79%
    03:00 +6°C° 0 mm 1 mps 731 mmHg 79%
    04:00 +6°C° 0 mm 1 mps 731 mmHg 80%
    05:00 +6°C° 0 mm 1 mps 731 mmHg 80%
    06:00 +5°C° 0 mm 1 mps 731 mmHg 80%
    07:00 +4°C° 0 mm 0 mps 731 mmHg 80%
    08:00 +7°C° 0 mm 1 mps 731 mmHg 77%
    09:00 +8°C° 0 mm 1 mps 732 mmHg 73%
    10:00 +9°C° 0 mm 1 mps 732 mmHg 70%
    11:00 +9°C° 0 mm 2 mps 731 mmHg 69%
    12:00 +9°C° 0 mm 2 mps 731 mmHg 68%
    13:00 +10°C° 0 mm 3 mps 730 mmHg 67%
    14:00 +9°C° 0.1 mm 3 mps 730 mmHg 72%
    15:00 +9°C° 0.1 mm 2 mps 729 mmHg 77%
    16:00 +8°C° 0.1 mm 2 mps 729 mmHg 82%
    17:00 +9°C° 0.1 mm 2 mps 729 mmHg 85%
    18:00 +9°C° 0.1 mm 2 mps 729 mmHg 88%
    19:00 +9°C° 0.1 mm 2 mps 728 mmHg 91%
    20:00 +9°C° 0.3 mm 3 mps 728 mmHg 92%
    21:00 +10°C° 0.3 mm 3 mps 728 mmHg 94%
    22:00 +10°C° 0.3 mm 3 mps 728 mmHg 95%
    23:00 +10°C° 0.1 mm 2 mps 728 mmHg 95%
    Show more